Location: Bailey Volunteer Fire Department
(33.4359°N, 96.1680°W)
Time: 17:24:37
(UTC+00:00)

OAO 3 Copernicus - Pass Details

Date: 13 December 2025
Orbit: 689 x 698 km, 35.0° (Epoch: 13 January)

Event Time Altitude Azimuth Distance (km) Brightness Sun altitude
Exits shadow 12:04:15 25° 283° (WNW) 1,372 5.2 -15.4°
Maximum altitude 12:07:09 77° 6° (N) 710 4.3 -14.9°
Drops below altitude 10° 12:12:09 10° 92° (E) 2,133 8.1 -13.9°
Sets 12:14:33 0° 94° (E) 3,047 9.3 -13.4°
